"startDT [UTC]","vpos","CH4 [ppm]","stdev(CH4) [ppm]","CO2 [ppm]","stdev(CO2) [ppm]","H2O [ppm]","stdev(H2O)","p_LGR [torr]","T_LGR [C]","mt1_LGR [us]","mt2_LGR [us]","T_ECpre [C]","T_EC1 [C]","T_EC2 [C]","p_inlet [hPa]","p_in [hPa]","p_out [hPa]","T_inlet [C]","RH_inlet [%]","dwpt_inlet [C]","T_vent [C]","RH_vent [%]","dwpt_vent [C]","flow_vent [l min-1]","flow_inlet [l min-1]","dwpt_sample [C]","T_room [C]"
2012-11-26 00:00:00,0.0,1.9207,0.0010,403.95,0.22,26.4,27.7,138.08,29.57,24.65,36.40,0.04,-272.75,-272.75,-42,562,-933,24.0,2.3,-26.9,24.2,2.3,-26.6,5.73,2.36,-27.7,29.0
2012-11-26 00:01:00,0.0,1.9204,0.0010,403.92,0.26,25.8,27.6,138.08,29.57,24.65,36.40,0.04,-272.75,-272.75,-42,562,-933,24.1,2.3,-26.8,24.1,2.3,-26.6,5.73,2.36,-27.7,29.1
2012-11-26 00:02:00,0.0,1.9205,0.0009,403.80,0.22,20.4,25.6,138.08,29.57,24.65,36.40,0.04,-272.75,-272.75,-42,562,-933,24.1,2.3,-26.6,24.1,2.3,-26.5,5.73,2.39,-27.7,29.0
2012-11-26 00:03:00,0.0,1.9208,0.0009,403.69,0.26,24.6,24.1,138.08,29.57,24.65,36.41,0.04,-272.75,-272.75,-42,562,-933,24.1,2.3,-26.6,24.1,2.3,-26.4,5.73,2.43,-27.7,29.1
2012-11-26 00:04:00,0.0,1.9202,0.0011,403.76,0.25,33.1,31.6,138.08,29.57,24.65,36.41,0.04,-272.75,-272.75,-42,562,-934,24.1,2.3,-26.5,24.1,2.4,-26.4,5.73,2.44,-27.7,29.1
2012-11-26 00:05:00,0.0,1.9205,0.0007,403.78,0.23,26.4,23.9,138.08,29.57,24.65,36.41,0.04,-272.75,-272.75,-42,562,-933,24.1,2.3,-26.6,24.1,2.4,-26.2,5.73,2.41,-27.7,29.1
2012-11-26 00:06:00,0.0,1.9204,0.0007,403.83,0.26,23.6,22.5,138.08,29.56,24.65,36.40,0.04,-272.75,-272.74,-42,562,-933,24.1,2.3,-26.5,24.1,2.4,-26.2,5.73,2.38,-27.7,29.0
2012-11-26 00:07:00,0.0,1.9205,0.0010,403.77,0.25,30.2,25.3,138.08,29.56,24.65,36.40,0.04,-272.75,-272.75,-42,562,-933,24.1,2.4,-26.4,24.1,2.4,-26.2,5.73,2.35,-27.7,29.1
2012-11-26 00:08:00,0.0,1.9206,0.0011,403.78,0.21,22.4,21.7,138.08,29.56,24.65,36.40,0.04,-272.75,-272.75,-42,562,-933,24.1,2.4,-26.4,24.1,2.4,-26.2,5.73,2.37,-27.7,29.1
2012-11-26 00:09:00,0.0,1.9207,0.0010,403.77,0.24,22.7,26.9,138.08,29.56,24.65,36.40,0.04,-272.75,-272.75,-42,562,-933,24.1,2.4,-26.4,24.2,2.4,-26.1,5.73,2.41,-27.7,29.1
2012-11-26 00:10:00,0.0,1.9205,0.0009,403.67,0.29,25.5,23.2,138.08,29.56,24.65,36.40,0.04,-272.75,-272.75,-42,562,-933,24.1,2.4,-26.3,24.1,2.4,-26.1,5.73,2.43,-27.7,29.0
2012-11-26 00:11:00,0.0,1.9204,0.0007,403.68,0.23,30.6,28.1,138.08,29.56,24.65,36.40,0.04,-272.75,-272.75,-42,562,-933,24.1,2.4,-26.3,24.1,2.4,-26.0,5.73,2.43,-27.6,29.1
2012-11-26 00:12:00,0.0,1.9204,0.0010,403.72,0.24,21.4,23.4,138.08,29.56,24.65,36.41,0.04,-272.75,-272.75,-42,562,-933,24.1,2.4,-26.3,24.2,2.4,-26.0,5.73,2.39,-27.6,29.1
2012-11-26 00:13:00,0.0,1.9203,0.0009,403.62,0.27,26.1,24.9,138.08,29.56,24.65,36.41,0.04,-272.75,-272.75,-42,562,-933,24.1,2.4,-26.2,24.2,2.5,-25.9,5.73,2.36,-27.6,29.1
2012-11-26 00:14:00,0.0,1.9209,0.0009,403.59,0.24,26.3,26.0,138.08,29.56,24.65,36.40,0.04,-272.75,-272.75,-42,562,-933,24.1,2.4,-26.1,24.2,2.5,-25.8,5.73,2.36,-27.6,29.0
2012-11-26 00:15:00,0.0,1.9207,0.0012,403.68,0.23,24.4,26.5,138.08,29.56,24.65,36.40,0.04,-272.75,-272.75,-42,562,-933,24.1,2.4,-26.1,24.2,2.5,-25.8,5.73,2.40,-27.6,29.0
2012-11-26 00:16:00,0.0,1.9200,0.0009,403.63,0.25,24.2,26.0,138.08,29.56,24.65,36.40,0.04,-272.75,-272.75,-42,562,-933,24.1,2.4,-26.1,24.1,2.5,-25.9,5.73,2.43,-27.6,29.0
2012-11-26 00:17:00,0.0,1.9204,0.0010,403.52,0.29,29.8,25.0,138.08,29.56,24.65,36.41,0.04,-272.75,-272.75,-42,562,-933,24.1,2.5,-26.0,24.2,2.5,-25.8,5.73,2.43,-27.6,29.1
2012-11-26 00:18:00,0.0,1.9204,0.0011,403.46,0.25,26.1,27.2,138.08,29.56,24.65,36.41,0.04,-272.75,-272.75,-42,562,-933,24.1,2.4,-26.1,24.2,2.5,-25.7,5.73,2.39,-27.6,29.1
2012-11-26 00:19:00,0.0,1.9204,0.0009,403.67,0.21,33.6,26.7,138.08,29.56,24.65,36.40,0.04,-272.75,-272.75,-42,562,-933,24.1,2.4,-26.0,24.2,2.5,-25.7,5.73,2.36,-27.6,29.1
2012-11-26 00:20:00,0.0,1.9206,0.0009,403.57,0.24,27.6,24.1,138.08,29.56,24.65,36.41,0.04,-272.75,-272.75,-42,562,-933,24.1,2.4,-26.0,24.2,2.5,-25.8,5.73,2.36,-27.6,29.1
2012-11-26 00:21:00,0.0,1.9222,0.0011,403.62,0.23,27.0,28.3,138.08,29.56,24.65,36.40,0.04,-272.75,-272.75,-42,562,-933,24.1,2.4,-26.2,24.1,2.5,-25.9,5.73,2.40,-27.6,29.1
2012-11-26 00:22:00,0.0,1.9221,0.0010,403.61,0.23,34.8,28.1,138.08,29.56,24.65,36.40,0.04,-272.74,-272.75,-42,562,-933,24.1,2.4,-26.4,24.2,2.4,-26.1,5.73,2.43,-27.6,29.1
2012-11-26 00:23:00,0.0,1.9217,0.0009,403.74,0.20,33.9,27.1,138.08,29.56,24.65,36.39,0.04,-272.75,-272.74,-42,562,-933,24.1,2.3,-26.5,24.1,2.4,-26.1,5.73,2.43,-27.6,29.1
2012-11-26 00:24:00,0.0,1.9217,0.0010,403.60,0.24,30.3,24.9,138.08,29.57,24.65,36.40,0.04,-272.75,-272.75,-42,562,-933,24.1,2.3,-26.6,24.2,2.4,-26.3,5.73,2.41,-27.5,29.1
2012-11-26 00:25:00,0.0,1.9223,0.0009,403.71,0.28,29.4,28.2,138.08,29.56,24.65,36.39,0.04,-272.75,-272.75,-42,562,-933,24.1,2.3,-26.6,24.2,2.3,-26.4,5.73,2.37,-27.6,29.1
2012-11-26 00:26:00,0.0,1.9222,0.0009,403.60,0.25,32.7,25.8,138.08,29.56,24.65,36.40,0.04,-272.74,-272.75,-42,562,-933,24.1,2.3,-26.7,24.2,2.3,-26.4,5.73,2.36,-27.5,29.1
2012-11-26 00:27:00,0.0,1.9216,0.0010,403.55,0.22,27.6,25.6,138.08,29.56,24.65,36.40,0.04,-272.75,-272.75,-42,562,-933,24.1,2.3,-26.8,24.2,2.3,-26.5,5.73,2.39,-27.5,29.1
2012-11-26 00:28:00,0.0,1.9211,0.0009,403.53,0.26,35.4,30.2,138.08,29.56,24.65,36.40,0.04,-272.75,-272.75,-42,562,-933,24.1,2.3,-26.8,24.2,2.3,-26.7,5.73,2.42,-27.5,29.1
2012-11-26 00:29:00,0.0,1.9211,0.0008,403.50,0.23,32.9,25.7,138.08,29.56,24.65,36.40,0.04,-272.75,-272.75,-42,562,-933,24.1,2.3,-26.9,24.2,2.3,-26.7,5.73,2.43,-27.5,29.1
2012-11-26 00:30:00,0.0,1.9209,0.0008,403.42,0.24,26.5,26.0,138.08,29.56,24.65,36.41,0.04,-272.75,-272.75,-42,562,-933,24.1,2.2,-26.9,24.2,2.3,-26.7,5.73,2.40,-27.5,29.1
2012-11-26 00:31:00,0.0,1.9205,0.0007,403.46,0.24,36.9,25.1,138.08,29.56,24.65,36.40,0.04,-272.75,-272.75,-42,562,-933,24.1,2.2,-27.0,24.2,2.3,-26.8,5.73,2.37,-27.5,29.1
2012-11-26 00:32:00,0.0,1.9207,0.0009,403.38,0.23,34.4,29.1,138.08,29.56,24.65,36.40,0.04,-272.75,-272.75,-42,562,-933,24.1,2.2,-27.2,24.2,2.3,-26.7,5.73,2.36,-27.5,29.1
2012-11-26 00:33:00,0.0,1.9210,0.0009,403.38,0.27,40.4,29.1,138.08,29.56,24.65,36.40,0.04,-272.75,-272.75,-42,562,-933,24.1,2.2,-27.1,24.2,2.2,-26.9,5.73,2.38,-27.5,29.1
2012-11-26 00:34:00,0.0,1.9209,0.0009,403.39,0.25,37.4,30.1,138.08,29.56,24.65,36.40,0.04,-272.75,-272.75,-42,562,-933,24.1,2.2,-27.2,24.2,2.2,-27.1,5.73,2.42,-27.5,29.1
2012-11-26 00:35:00,0.0,1.9211,0.0008,403.38,0.24,46.4,29.1,138.08,29.57,24.65,36.40,0.04,-272.75,-272.75,-42,562,-933,24.1,2.2,-27.1,24.2,2.2,-27.1,5.73,2.44,-27.5,29.1
2012-11-26 00:36:00,0.0,1.9209,0.0010,403.30,0.24,38.2,24.8,138.08,29.56,24.65,36.40,0.04,-272.75,-272.75,-42,562,-933,24.1,2.2,-27.1,24.2,2.2,-27.1,5.73,2.41,-27.4,29.1
2012-11-26 00:37:00,0.0,1.9209,0.0012,403.35,0.22,34.9,27.5,138.08,29.56,24.65,36.40,0.04,-272.75,-272.75,-42,562,-933,24.1,2.2,-27.2,24.2,2.2,-27.0,5.73,2.37,-27.4,29.1
2012-11-26 00:38:00,0.0,1.9221,0.0012,403.48,0.27,38.2,31.4,138.08,29.56,24.65,36.40,0.04,-272.75,-272.75,-42,562,-933,24.1,2.2,-27.2,24.2,2.2,-27.0,5.73,2.35,-27.4,29.1
2012-11-26 00:39:00,0.0,1.9227,0.0009,403.63,0.22,27.2,27.5,138.08,29.56,24.65,36.40,0.04,-272.75,-272.74,-42,562,-933,24.1,2.2,-27.2,24.2,2.2,-26.9,5.73,2.38,-27.4,29.1
2012-11-26 00:40:00,0.0,1.9230,0.0009,403.66,0.22,38.6,27.2,138.08,29.56,24.65,36.40,0.04,-272.75,-272.75,-42,562,-933,24.1,2.2,-27.2,24.2,2.3,-26.8,5.73,2.42,-27.4,29.1
2012-11-26 00:41:00,0.0,1.9220,0.0010,403.47,0.20,37.5,26.7,138.08,29.56,24.65,36.41,0.04,-272.75,-272.75,-42,562,-933,24.1,2.2,-27.2,24.2,2.2,-27.0,5.73,2.44,-27.4,29.1
2012-11-26 00:42:00,0.0,1.9211,0.0010,403.27,0.27,42.0,26.5,138.08,29.56,24.65,36.41,0.04,-272.75,-272.75,-42,562,-933,24.1,2.2,-27.1,24.1,2.2,-26.9,5.73,2.41,-27.4,29.1
2012-11-26 00:43:00,0.0,1.9207,0.0009,403.36,0.24,38.8,30.1,138.08,29.56,24.65,36.40,0.04,-272.75,-272.75,-42,562,-933,24.1,2.2,-27.0,24.2,2.3,-26.6,5.73,2.37,-27.4,29.1
2012-11-26 00:44:00,0.0,1.9213,0.0009,403.39,0.27,34.9,27.6,138.08,29.57,24.65,36.40,0.04,-272.75,-272.75,-42,562,-933,24.1,2.3,-26.8,24.2,2.3,-26.7,5.73,2.35,-27.4,29.1
2012-11-26 00:45:00,0.0,1.9211,0.0009,403.48,0.21,37.9,26.2,138.08,29.57,24.65,36.40,0.04,-272.75,-272.75,-42,562,-933,24.1,2.3,-26.7,24.2,2.3,-26.5,5.73,2.38,-27.4,29.1
2012-11-26 00:46:00,0.0,1.9208,0.0008,403.43,0.23,42.3,28.5,138.08,29.57,24.65,36.41,0.04,-272.75,-272.75,-42,562,-933,24.1,2.3,-26.6,24.2,2.4,-26.4,5.73,2.42,-27.4,29.1
2012-11-26 00:47:00,0.0,1.9209,0.0007,403.58,0.26,40.9,27.5,138.08,29.57,24.65,36.40,0.04,-272.75,-272.75,-42,562,-933,24.1,2.3,-26.5,24.2,2.4,-26.3,5.73,2.44,-27.4,29.1
2012-11-26 00:48:00,0.0,1.9211,0.0008,403.76,0.22,33.7,27.9,138.08,29.57,24.65,36.40,0.04,-272.75,-272.75,-42,562,-933,24.1,2.4,-26.3,24.2,2.4,-26.2,5.73,2.42,-27.4,29.1
2012-11-26 00:49:00,0.0,1.9209,0.0010,403.79,0.24,29.3,27.3,138.08,29.57,24.65,36.40,0.04,-272.75,-272.75,-42,562,-933,24.1,2.3,-26.5,24.2,2.4,-26.1,5.73,2.38,-27.3,29.1
2012-11-26 00:50:00,0.0,1.9210,0.0009,403.56,0.22,51.0,31.0,138.08,29.57,24.65,36.41,0.04,-272.74,-272.75,-42,562,-933,24.1,2.3,-26.4,24.2,2.4,-26.2,5.73,2.36,-27.3,29.1
2012-11-26 00:51:00,0.0,1.9212,0.0010,403.92,0.30,38.0,28.8,138.08,29.57,24.65,36.40,0.04,-272.75,-272.75,-42,562,-933,24.1,2.4,-26.4,24.2,2.4,-26.2,5.73,2.37,-27.3,29.1
2012-11-26 00:52:00,0.0,1.9214,0.0009,404.47,0.38,36.8,27.3,138.08,29.57,24.65,36.40,0.04,-272.75,-272.75,-42,562,-933,24.1,2.4,-26.4,24.2,2.4,-26.2,5.73,2.41,-27.3,29.1
2012-11-26 00:53:00,0.0,1.9212,0.0009,404.23,0.26,44.4,28.6,138.08,29.57,24.65,36.40,0.04,-272.74,-272.75,-42,562,-933,24.1,2.4,-26.4,24.2,2.4,-26.3,5.73,2.43,-27.3,29.1
2012-11-26 00:54:00,0.0,1.9214,0.0011,404.31,0.24,37.4,27.1,138.08,29.57,24.65,36.40,0.04,-272.75,-272.75,-42,562,-933,24.1,2.4,-26.3,24.2,2.4,-26.0,5.73,2.42,-27.3,29.0
2012-11-26 00:55:00,0.0,1.9214,0.0009,404.16,0.23,36.9,31.0,138.08,29.57,24.65,36.41,0.04,-272.75,-272.75,-42,562,-933,24.1,2.4,-26.2,24.2,2.4,-26.0,5.73,2.38,-27.3,29.1
2012-11-26 00:56:00,0.0,1.9214,0.0009,404.37,0.25,41.4,28.3,138.08,29.57,24.65,36.40,0.04,-272.75,-272.75,-42,562,-933,24.1,2.4,-26.3,24.2,2.4,-26.0,5.73,2.36,-27.3,29.1
2012-11-26 00:57:00,0.0,1.9216,0.0009,404.39,0.24,41.0,29.3,138.08,29.57,24.65,36.41,0.04,-272.75,-272.75,-42,562,-933,24.1,2.4,-26.4,24.2,2.4,-26.0,5.73,2.37,-27.3,29.1
2012-11-26 00:58:00,0.0,1.9214,0.0008,404.65,0.25,47.4,35.3,138.08,29.57,24.65,36.39,0.04,-272.75,-272.75,-42,562,-933,24.1,2.4,-26.2,24.2,2.5,-25.9,5.73,2.41,-27.3,29.1
2012-11-26 00:59:00,0.0,1.9218,0.0009,404.51,0.22,45.6,27.2,138.08,29.57,24.65,36.40,0.04,-272.75,-272.75,-42,562,-933,24.1,2.4,-26.1,24.2,2.4,-26.1,5.73,2.44,-27.3,29.0
2012-11-26 01:00:00,0.0,1.9217,0.0009,404.46,0.24,41.6,26.5,138.08,29.57,24.65,36.41,0.04,-272.75,-272.75,-42,562,-933,24.1,2.4,-26.2,24.2,2.4,-26.0,5.73,2.43,-27.3,29.1
2012-11-26 01:01:00,0.0,1.9219,0.0009,404.33,0.23,49.2,31.0,138.08,29.57,24.65,36.41,0.04,-272.75,-272.75,-42,562,-933,24.2,2.4,-26.1,24.2,2.4,-26.0,5.73,2.38,-27.3,29.1
2012-11-26 01:02:00,0.0,1.9228,0.0010,404.21,0.21,41.5,28.6,138.08,29.57,24.65,36.40,0.04,-272.75,-272.75,-42,562,-933,24.1,2.4,-26.1,24.2,2.4,-25.9,5.73,2.35,-27.3,29.1
2012-11-26 01:03:00,0.0,1.9224,0.0012,404.44,0.26,42.7,24.2,138.08,29.57,24.65,36.40,0.04,-272.75,-272.75,-42,562,-933,24.1,2.4,-26.3,24.2,2.4,-26.1,5.73,2.37,-27.3,29.1
2012-11-26 01:04:00,0.0,1.9219,0.0008,404.54,0.23,40.2,28.8,138.08,29.57,24.65,36.40,0.04,-272.75,-272.75,-42,562,-933,24.1,2.4,-26.3,24.2,2.4,-26.0,5.73,2.41,-27.3,29.1
2012-11-26 01:05:00,0.0,1.9218,0.0010,404.51,0.25,41.9,27.8,138.08,29.57,24.65,36.40,0.04,-272.75,-272.75,-42,562,-933,24.1,2.4,-26.4,24.2,2.4,-26.2,5.73,2.43,-27.3,29.1
2012-11-26 01:06:00,0.0,1.9216,0.0010,404.35,0.27,43.2,30.7,138.08,29.57,24.65,36.41,0.04,-272.75,-272.75,-42,562,-933,24.1,2.4,-26.3,24.2,2.4,-26.3,5.73,2.43,-27.3,29.0
2012-11-26 01:07:00,0.0,1.9216,0.0009,404.37,0.23,49.8,30.7,138.08,29.56,24.66,36.40,0.04,-272.74,-272.75,-42,562,-933,24.1,2.4,-26.3,24.2,2.4,-26.2,5.73,2.38,-27.2,29.1
2012-11-26 01:08:00,0.0,1.9218,0.0011,404.25,0.23,43.7,28.5,138.08,29.57,24.65,36.40,0.04,-272.75,-272.75,-42,562,-933,24.1,2.4,-26.2,24.2,2.4,-26.1,5.73,2.35,-27.3,29.1
2012-11-26 01:09:00,0.0,1.9247,0.0012,403.99,0.25,43.7,31.9,138.08,29.57,24.65,36.40,0.04,-272.75,-272.75,-42,562,-933,24.1,2.4,-26.3,24.2,2.4,-26.1,5.73,2.37,-27.3,29.1
2012-11-26 01:10:00,0.0,1.9258,0.0016,403.94,0.21,43.7,35.9,138.08,29.57,24.65,36.40,0.04,-272.75,-272.74,-42,562,-933,24.1,2.4,-26.3,24.2,2.4,-26.2,5.73,2.41,-27.2,29.0
2012-11-26 01:11:00,0.0,1.9234,0.0009,404.16,0.26,36.3,25.4,138.08,29.57,24.65,36.40,0.04,-272.75,-272.75,-42,562,-933,24.1,2.4,-26.4,24.2,2.4,-26.3,5.73,2.43,-27.2,29.1
2012-11-26 01:12:00,0.0,1.9229,0.0010,404.39,0.26,42.8,33.4,138.08,29.57,24.65,36.40,0.04,-272.75,-272.75,-42,562,-933,24.1,2.4,-26.4,24.2,2.4,-26.1,5.73,2.42,-27.3,29.1
2012-11-26 01:13:00,0.0,1.9236,0.0008,404.10,0.25,48.3,33.5,138.08,29.57,24.65,36.40,0.04,-272.74,-272.75,-42,562,-933,24.1,2.4,-26.4,24.2,2.4,-26.3,5.73,2.38,-27.2,29.1
2012-11-26 01:14:00,0.0,1.9237,0.0011,403.98,0.25,49.5,29.8,138.08,29.57,24.65,36.40,0.04,-272.75,-272.75,-42,562,-933,24.1,2.4,-26.4,24.2,2.4,-26.4,5.73,2.36,-27.2,29.1
2012-11-26 01:15:00,0.0,1.9233,0.0011,403.91,0.24,46.1,31.5,138.08,29.57,24.65,36.40,0.04,-272.75,-272.75,-42,562,-933,24.1,2.4,-26.4,24.2,2.4,-26.2,5.73,2.37,-27.2,29.1
2012-11-26 01:16:00,0.0,1.9231,0.0008,404.01,0.25,42.9,31.8,138.08,29.57,24.65,36.40,0.04,-272.75,-272.75,-42,562,-934,24.1,2.4,-26.4,24.2,2.4,-26.2,5.73,2.41,-27.2,29.1
2012-11-26 01:17:00,0.0,1.9242,0.0015,403.72,0.31,46.8,30.5,138.08,29.57,24.65,36.41,0.04,-272.75,-272.75,-42,562,-933,24.1,2.3,-26.4,24.2,2.4,-26.4,5.73,2.44,-27.2,29.1
2012-11-26 01:18:00,0.0,1.9257,0.0010,403.54,0.22,44.4,31.2,138.08,29.57,24.65,36.40,0.04,-272.75,-272.75,-42,562,-933,24.1,2.3,-26.5,24.2,2.3,-26.5,5.73,2.41,-27.2,29.1
2012-11-26 01:19:00,0.0,1.9266,0.0009,403.52,0.27,47.7,37.2,138.08,29.57,24.65,36.40,0.04,-272.75,-272.75,-42,562,-933,24.1,2.3,-26.6,24.2,2.3,-26.5,5.73,2.38,-27.2,29.1
2012-11-26 01:20:00,0.0,1.9264,0.0009,403.37,0.26,46.3,30.7,138.08,29.57,24.65,36.40,0.04,-272.75,-272.75,-42,562,-933,24.1,2.3,-26.6,24.2,2.3,-26.5,5.73,2.35,-27.2,29.1
2012-11-26 01:21:00,0.0,1.9284,0.0010,403.38,0.23,42.7,28.5,138.08,29.57,24.65,36.40,0.04,-272.75,-272.75,-42,562,-933,24.1,2.3,-26.6,24.2,2.3,-26.5,5.73,2.37,-27.2,29.1
2012-11-26 01:22:00,0.0,1.9277,0.0014,403.49,0.22,41.6,34.0,138.08,29.57,24.65,36.40,0.04,-272.75,-272.76,-42,562,-933,24.1,2.3,-26.8,24.2,2.3,-26.5,5.73,2.41,-27.2,29.1
2012-11-26 01:23:00,0.0,1.9261,0.0011,403.40,0.22,53.5,28.1,138.08,29.57,24.65,36.40,0.04,-272.75,-272.75,-42,563,-933,24.1,2.3,-26.8,24.2,2.3,-26.6,5.73,2.43,-27.2,29.1
2012-11-26 01:24:00,0.0,1.9268,0.0014,403.56,0.20,46.7,31.5,138.08,29.57,24.65,36.39,0.04,-272.75,-272.75,-42,562,-933,24.1,2.3,-26.8,24.2,2.3,-26.6,5.73,2.42,-27.2,29.1
2012-11-26 01:25:00,0.0,1.9261,0.0011,403.44,0.22,47.1,31.7,138.08,29.57,24.65,36.40,0.04,-272.75,-272.75,-42,562,-933,24.1,2.2,-27.0,24.2,2.3,-26.8,5.73,2.38,-27.2,29.1
2012-11-26 01:26:00,0.0,1.9259,0.0011,403.52,0.23,43.3,29.9,138.08,29.57,24.65,36.40,0.04,-272.75,-272.75,-42,562,-933,24.2,2.2,-26.9,24.2,2.2,-26.9,5.73,2.35,-27.2,29.1
2012-11-26 01:27:00,0.0,1.9266,0.0010,403.39,0.24,51.2,31.5,138.08,29.57,24.65,36.40,0.04,-272.74,-272.75,-42,563,-933,24.2,2.3,-26.8,24.2,2.2,-26.8,5.73,2.38,-27.1,29.1
2012-11-26 01:28:00,0.0,1.9266,0.0014,403.35,0.26,42.6,33.6,138.08,29.57,24.65,36.40,0.04,-272.75,-272.75,-42,562,-934,24.2,2.2,-27.0,24.2,2.2,-27.0,5.73,2.41,-27.1,29.1
2012-11-26 01:29:00,0.0,1.9260,0.0010,403.22,0.28,49.3,32.2,138.08,29.57,24.65,36.41,0.04,-272.75,-272.75,-42,562,-933,24.2,2.2,-27.0,24.2,2.2,-26.9,5.73,2.44,-27.1,29.1
2012-11-26 01:30:00,0.0,1.9250,0.0013,403.41,0.28,49.4,33.5,138.08,29.57,24.65,36.40,0.04,-272.75,-272.75,-42,562,-933,24.1,2.2,-27.1,24.2,2.2,-26.9,5.73,2.43,-27.1,29.1
2012-11-26 01:31:00,0.0,1.9288,0.0010,403.25,0.26,49.0,25.6,138.08,29.57,24.65,36.40,0.04,-272.75,-272.75,-42,562,-933,24.1,2.2,-27.0,24.2,2.2,-27.0,5.73,2.38,-27.1,29.1
2012-11-26 01:32:00,0.0,1.9293,0.0010,403.21,0.24,38.5,31.1,138.08,29.57,24.65,36.40,0.04,-272.75,-272.75,-42,562,-933,24.2,2.2,-27.0,24.2,2.2,-26.9,5.73,2.36,-27.1,29.1
2012-11-26 01:33:00,0.0,1.9283,0.0008,403.09,0.27,39.3,30.3,138.08,29.57,24.66,36.41,0.04,-272.75,-272.75,-42,562,-933,24.1,2.2,-27.1,24.2,2.3,-26.8,5.73,2.38,-27.1,29.1
2012-11-26 01:34:00,0.0,1.9290,0.0008,403.14,0.26,44.2,29.0,138.08,29.57,24.65,36.41,0.04,-272.75,-272.75,-42,562,-933,24.2,2.2,-27.0,24.2,2.3,-26.8,5.73,2.41,-27.1,29.1
2012-11-26 01:35:00,0.0,1.9297,0.0008,403.36,0.28,44.7,32.0,138.08,29.57,24.65,36.39,0.04,-272.75,-272.75,-42,562,-933,24.2,2.2,-27.0,24.2,2.2,-26.9,5.73,2.44,-27.1,29.1
2012-11-26 01:36:00,0.0,1.9290,0.0009,403.22,0.23,47.7,27.7,138.08,29.57,24.65,36.40,0.04,-272.75,-272.75,-42,562,-933,24.1,2.2,-27.0,24.2,2.2,-27.0,5.73,2.42,-27.1,29.1
2012-11-26 01:37:00,0.0,1.9261,0.0017,403.25,0.26,50.7,31.0,138.08,29.57,24.65,36.40,0.04,-272.75,-272.74,-42,562,-933,24.2,2.2,-27.0,24.2,2.2,-26.9,5.73,2.37,-27.1,29.1
2012-11-26 01:38:00,0.0,1.9234,0.0010,403.43,0.20,43.0,33.8,138.08,29.57,24.65,36.40,0.04,-272.75,-272.75,-42,562,-933,24.2,2.2,-27.0,24.2,2.2,-26.9,5.73,2.35,-27.1,29.1
2012-11-26 01:39:00,0.0,1.9238,0.0008,403.40,0.29,45.7,30.8,138.08,29.57,24.65,36.40,0.04,-272.75,-272.75,-42,562,-933,24.2,2.2,-27.0,24.2,2.2,-27.1,5.73,2.37,-27.1,29.1
2012-11-26 01:40:00,0.0,1.9254,0.0012,403.23,0.26,46.3,33.0,138.08,29.57,24.65,36.40,0.04,-272.75,-272.74,-42,563,-933,24.2,2.2,-27.1,24.2,2.2,-27.0,5.73,2.42,-27.1,29.1
2012-11-26 01:41:00,0.0,1.9263,0.0011,403.25,0.21,45.6,25.1,138.08,29.57,24.65,36.39,0.04,-272.74,-272.75,-42,563,-933,24.1,2.2,-27.1,24.2,2.2,-27.0,5.73,2.43,-27.1,29.1
2012-11-26 01:42:00,0.0,1.9265,0.0009,403.23,0.23,53.3,31.0,138.08,29.58,24.65,36.40,0.04,-272.75,-272.75,-42,562,-933,24.1,2.2,-27.0,24.2,2.2,-27.1,5.73,2.41,-27.1,29.1
2012-11-26 01:43:00,0.0,1.9274,0.0010,403.23,0.22,55.3,31.6,138.08,29.58,24.65,36.40,0.04,-272.75,-272.75,-42,562,-933,24.2,2.2,-26.9,24.2,2.2,-27.0,5.73,2.37,-27.1,29.1
2012-11-26 01:44:00,0.0,1.9271,0.0008,403.13,0.22,50.1,30.1,138.08,29.58,24.65,36.40,0.04,-272.74,-272.75,-42,562,-933,24.2,2.2,-27.0,24.2,2.2,-27.0,5.73,2.35,-27.1,29.1
2012-11-26 01:45:00,0.0,1.9259,0.0009,403.19,0.26,54.3,28.0,138.08,29.58,24.65,36.40,0.04,-272.75,-272.75,-42,562,-933,24.2,2.2,-27.1,24.2,2.2,-27.1,5.73,2.38,-27.0,29.1
2012-11-26 01:46:00,0.0,1.9261,0.0009,403.14,0.20,48.8,26.7,138.08,29.58,24.66,36.41,0.04,-272.75,-272.75,-42,562,-933,24.2,2.2,-26.9,24.2,2.2,-26.9,5.73,2.42,-27.1,29.1
2012-11-26 01:47:00,0.0,1.9258,0.0010,403.08,0.28,47.2,33.0,138.08,29.58,24.65,36.41,0.04,-272.74,-272.75,-42,563,-933,24.2,2.2,-26.9,24.2,2.2,-26.9,5.73,2.44,-27.0,29.1
2012-11-26 01:48:00,0.0,1.9251,0.0011,403.07,0.21,53.5,34.2,138.08,29.58,24.65,36.40,0.04,-272.75,-272.75,-42,563,-933,24.2,2.2,-26.9,24.2,2.2,-27.0,5.73,2.41,-27.1,29.1
2012-11-26 01:49:00,0.0,1.9250,0.0011,403.09,0.25,49.6,32.0,138.08,29.58,24.65,36.40,0.04,-272.75,-272.75,-42,562,-933,24.2,2.2,-26.9,24.2,2.2,-26.9,5.73,2.37,-27.0,29.1
2012-11-26 01:50:00,0.0,1.9251,0.0009,403.17,0.25,41.7,26.4,138.08,29.58,24.65,36.40,0.04,-272.75,-272.75,-42,562,-933,24.2,2.2,-26.9,24.2,2.2,-27.0,5.73,2.36,-27.0,29.1
2012-11-26 01:51:00,0.0,1.9250,0.0008,403.05,0.23,48.7,27.7,138.08,29.58,24.65,36.40,0.04,-272.75,-272.74,-42,562,-933,24.2,2.3,-26.8,24.2,2.2,-26.9,5.73,2.38,-27.0,29.1
2012-11-26 01:52:00,0.0,1.9250,0.0012,403.07,0.26,54.5,27.6,138.08,29.58,24.65,36.41,0.04,-272.75,-272.75,-42,562,-933,24.2,2.2,-27.0,24.2,2.3,-26.8,5.73,2.42,-27.0,29.1
2012-11-26 01:53:00,0.0,1.9247,0.0009,403.17,0.22,48.7,33.6,138.08,29.58,24.65,36.41,0.04,-272.75,-272.75,-42,562,-933,24.2,2.3,-26.8,24.2,2.2,-27.0,5.73,2.44,-27.0,29.1
2012-11-26 01:54:00,0.0,1.9240,0.0008,403.37,0.25,52.0,30.4,138.08,29.58,24.65,36.40,0.04,-272.75,-272.75,-42,562,-933,24.2,2.2,-26.9,24.2,2.2,-26.9,5.73,2.41,-27.0,29.1
2012-11-26 01:55:00,0.0,1.9245,0.0011,403.24,0.22,55.9,32.3,138.08,29.58,24.65,36.42,0.04,-272.75,-272.75,-42,562,-933,24.2,2.3,-26.8,24.2,2.2,-26.9,5.73,2.36,-27.1,29.1
2012-11-26 01:56:00,0.0,1.9262,0.0008,403.23,0.22,49.8,30.6,138.08,29.58,24.65,36.41,0.04,-272.75,-272.75,-42,562,-933,24.2,2.2,-26.9,24.2,2.2,-27.0,5.73,2.35,-27.0,29.1
2012-11-26 01:57:00,0.0,1.9242,0.0011,403.48,0.24,54.5,29.8,138.08,29.58,24.65,36.40,0.04,-272.75,-272.75,-42,562,-933,24.2,2.2,-27.0,24.2,2.2,-26.9,5.73,2.39,-27.0,29.1
2012-11-26 01:58:00,0.0,1.9231,0.0011,403.69,0.26,60.2,31.3,138.08,29.58,24.65,36.39,0.04,-272.75,-272.75,-42,562,-933,24.2,2.2,-26.9,24.2,2.2,-26.9,5.73,2.43,-27.0,29.1
2012-11-26 01:59:00,0.0,1.9229,0.0010,403.43,0.18,56.0,33.1,138.08,29.58,24.65,36.41,0.04,-272.75,-272.75,-42,562,-933,24.2,2.2,-26.9,24.2,2.2,-27.0,5.73,2.43,-27.0,29.1
2012-11-26 02:00:00,0.0,1.9233,0.0010,403.57,0.22,55.0,28.7,138.08,29.58,24.65,36.40,0.04,-272.75,-272.75,-42,562,-933,24.2,2.2,-26.9,24.2,2.2,-27.0,5.73,2.39,-27.0,29.1
2012-11-26 02:01:00,0.0,1.9229,0.0010,403.47,0.27,50.4,30.4,138.08,29.58,24.65,36.41,0.04,-272.75,-272.75,-42,562,-933,24.2,2.2,-26.9,24.2,2.2,-27.1,5.73,2.36,-27.0,29.1
2012-11-26 02:02:00,0.0,1.9228,0.0011,403.62,0.23,45.5,30.0,138.08,29.58,24.65,36.40,0.04,-272.75,-272.75,-42,562,-933,24.2,2.3,-26.8,24.2,2.2,-26.9,5.73,2.36,-27.0,29.1
2012-11-26 02:03:00,0.0,1.9235,0.0010,403.53,0.25,55.2,31.7,138.08,29.58,24.65,36.40,0.04,-272.75,-272.75,-42,562,-933,24.2,2.3,-26.8,24.2,2.2,-26.9,5.73,2.40,-27.0,29.1
2012-11-26 02:04:00,0.0,1.9230,0.0011,403.63,0.27,56.1,34.0,138.08,29.58,24.65,36.40,0.04,-272.75,-272.75,-42,563,-933,24.2,2.3,-26.7,24.2,2.2,-26.9,5.73,2.44,-27.0,29.2
2012-11-26 02:05:00,0.0,1.9232,0.0009,403.53,0.19,57.7,30.6,138.08,29.58,24.65,36.40,0.04,-272.75,-272.75,-42,562,-933,24.2,2.3,-26.8,24.2,2.2,-26.8,5.73,2.43,-27.0,29.1
2012-11-26 02:06:00,0.0,1.9234,0.0011,403.56,0.25,62.5,28.2,138.08,29.58,24.65,36.40,0.04,-272.75,-272.75,-42,563,-933,24.2,2.2,-26.8,24.2,2.3,-26.7,5.73,2.38,-27.0,29.1
2012-11-26 02:07:00,0.0,1.9242,0.0010,403.53,0.19,52.8,33.1,138.08,29.57,24.65,36.40,0.04,-272.75,-272.75,-42,562,-933,24.2,2.3,-26.8,24.3,2.2,-26.8,5.73,2.35,-27.0,29.1
2012-11-26 02:08:00,0.0,1.9245,0.0007,403.54,0.21,63.8,29.1,138.08,29.57,24.65,36.40,0.04,-272.75,-272.75,-42,562,-933,24.2,2.3,-26.8,24.2,2.2,-26.8,5.73,2.38,-27.0,29.1
2012-11-26 02:09:00,0.0,1.9239,0.0008,403.50,0.24,52.8,30.7,138.08,29.57,24.65,36.40,0.04,-272.75,-272.75,-42,562,-933,24.2,2.3,-26.8,24.3,2.2,-26.8,5.73,2.42,-27.0,29.1
2012-11-26 02:10:00,0.0,1.9243,0.0009,403.49,0.27,56.0,31.3,138.08,29.58,24.65,36.40,0.04,-272.75,-272.75,-42,562,-932,24.2,2.2,-26.9,24.2,2.3,-26.8,5.73,2.44,-27.0,29.1
2012-11-26 02:11:00,0.0,1.9245,0.0009,403.54,0.25,54.4,31.4,138.08,29.58,24.65,36.40,0.04,-272.75,-272.75,-42,563,-933,24.3,2.2,-26.9,24.3,2.2,-27.0,5.73,2.41,-27.0,29.1
2012-11-26 02:12:00,0.0,1.9248,0.0009,403.48,0.25,54.3,28.0,138.08,29.58,24.65,36.40,0.04,-272.75,-272.75,-42,563,-933,24.2,2.2,-27.0,24.2,2.2,-26.9,5.73,2.36,-27.0,29.1
2012-11-26 02:13:00,0.0,1.9251,0.0010,403.50,0.23,52.6,33.4,138.08,29.58,24.65,36.40,0.04,-272.75,-272.75,-42,563,-933,24.2,2.2,-27.1,24.3,2.2,-26.9,5.73,2.36,-27.0,29.1
2012-11-26 02:14:00,0.0,1.9252,0.0009,403.50,0.27,55.1,31.6,138.08,29.58,24.65,36.40,0.04,-272.75,-272.75,-42,563,-933,24.2,2.2,-27.1,24.3,2.2,-26.8,5.73,2.40,-27.0,29.1
2012-11-26 02:15:00,0.0,1.9252,0.0008,403.42,0.24,61.0,29.7,138.08,29.58,24.65,36.41,0.04,-272.75,-272.75,-42,562,-932,24.2,2.2,-26.9,24.3,2.3,-26.7,5.73,2.44,-27.0,29.1
2012-11-26 02:16:00,0.0,1.9243,0.0011,403.62,0.21,62.1,33.6,138.08,29.58,24.65,36.40,0.04,-272.75,-272.75,-42,563,-933,24.2,2.2,-26.9,24.3,2.3,-26.7,5.73,2.43,-27.0,29.1
2012-11-26 02:17:00,0.0,1.9239,0.0013,403.63,0.27,60.3,28.1,138.08,29.58,24.65,36.40,0.04,-272.75,-272.75,-42,562,-933,24.2,2.2,-26.9,24.3,2.3,-26.6,5.73,2.38,-27.0,29.2